Date,TemperatureHighF,TemperatureAvgF,TemperatureLowF,DewpointHighF,DewpointAvgF,DewpointLowF,HumidityHigh,HumidityAvg,HumidityLow,PressureMaxIn,PressureMinIn,WindSpeedMaxMPH,WindSpeedAvgMPH,GustSpeedMaxMPH,PrecipitationSumIn
2013-1-1,61.8,51.2,41.5,47.0,38.5,30.4,90,65,33,30.19,30.04,6,1,9,0.00
2013-1-2,65.0,50.5,38.7,47.5,38.1,23.5,92,67,21,30.08,29.99,6,1,9,0.00
2013-1-3,71.2,51.9,37.0,47.4,36.6,20.5,94,63,15,30.12,30.00,5,1,7,0.00
2013-1-4,59.9,45.1,37.9,33.6,29.0,20.7,74,55,22,30.22,30.12,3,0,5,0.00
2013-5-2,68.1,63.7,59.3,57.6,56.0,53.9,84,76,69,29.96,29.93,7,3,13,0.00
2013-5-3,90.4,68.6,53.1,56.0,47.6,19.6,90,55,8,29.96,29.73,9,2,12,0.00
2013-5-4,69.0,62.9,59.0,58.0,56.3,53.1,93,80,62,29.79,29.69,10,5,15,0.00
2013-5-5,64.7,61.2,59.0,56.2,52.9,51.0,89,74,63,29.88,29.77,9,6,15,0.00
2013-5-6,65.5,61.3,57.8,59.6,56.9,54.6,96,86,70,29.96,29.84,8,3,10,0.10
2013-5-7,67.7,62.0,57.0,57.6,55.0,47.8,94,79,50,30.02,29.93,9,4,13,0.20
2013-5-8,66.1,62.3,58.7,57.2,55.6,52.9,90,79,65,30.04,30.01,10,4,14,0.00
2013-5-9,66.5,61.6,55.2,57.9,56.4,53.3,95,83,72,30.05,29.97,10,3,16,0.00
2013-5-10,68.0,63.8,58.6,61.0,59.0,56.5,94,85,74,30.04,29.96,9,4,14,0.00
2013-5-11,71.6,63.2,57.7,63.2,60.1,56.6,97,90,73,30.02,29.93,10,3,15,0.00
2013-5-12,69.0,64.7,59.2,64.0,61.1,58.7,100,89,79,30.00,29.85,8,3,12,0.01
2013-5-13,79.1,69.3,61.4,64.3,60.5,54.7,92,75,47,29.92,29.81,11,4,16,0.00
2013-5-14,69.2,63.3,58.6,59.5,57.1,54.1,93,81,61,29.94,29.84,9,5,14,0.00
2013-5-15,70.6,61.9,55.6,58.9,56.2,53.3,94,82,61,29.99,29.90,8,3,12,0.00
2013-5-16,64.8,61.9,60.2,57.7,56.5,55.7,89,82,74,29.93,29.87,2,0,4,0.00
2013-5-17,69.1,63.8,60.4,60.7,57.7,55.5,86,81,69,29.94,29.85,10,3,13,0.00
2013-5-18,71.4,63.0,56.0,60.6,57.0,53.8,94,81,60,29.98,29.92,9,2,13,0.00
2013-5-19,69.2,62.7,54.8,60.5,57.7,53.1,97,84,68,29.93,29.83,9,3,13,0.00
2013-5-20,73.5,65.7,59.8,63.5,60.7,57.9,95,85,67,29.90,29.83,9,2,12,0.00
2013-5-21,72.8,65.0,61.0,62.1,60.2,57.7,95,85,67,29.89,29.79,9,4,13,0.00
2013-5-22,69.2,64.4,60.9,60.5,57.4,52.5,89,78,70,29.80,29.73,9,3,11,0.00
2013-5-23,69.9,63.1,58.0,57.8,54.7,52.7,86,74,57,29.88,29.77,10,3,13,0.00
2013-5-24,67.6,62.0,55.4,58.4,55.6,52.3,91,80,67,29.93,29.85,9,3,15,0.00
2013-5-25,67.5,61.5,55.4,58.4,55.9,53.1,93,82,68,29.97,29.91,10,3,13,0.00
2013-5-26,68.2,62.5,55.9,58.4,56.1,52.0,91,80,69,30.00,29.93,9,3,12,0.00
2013-5-27,68.3,63.4,57.2,60.0,57.6,54.9,93,82,71,29.95,29.80,9,3,11,0.00
2013-5-28,70.0,64.8,58.9,62.1,59.5,56.6,93,83,73,29.83,29.68,11,4,18,0.00
2013-5-29,73.0,66.6,61.5,63.7,60.7,57.8,94,82,62,29.76,29.65,12,4,17,0.00
2013-5-30,75.7,66.6,60.9,63.2,60.9,58.6,94,82,61,29.82,29.71,9,3,13,0.00
2013-5-31,71.3,66.0,62.5,62.6,60.4,58.5,91,82,71,29.86,29.77,8,4,14,0.00
2013-6-1,71.7,65.8,61.6,64.2,61.8,59.4,94,87,77,29.81,29.71,9,3,13,0.00
2013-6-2,71.0,66.1,63.8,61.7,60.2,57.5,91,82,69,29.78,29.71,7,3,11,0.00
2013-6-3,71.3,65.4,63.7,60.8,58.4,56.4,84,78,69,29.84,29.74,9,3,14,0.00
2013-6-4,69.1,64.5,61.6,61.3,58.5,56.9,89,81,69,29.91,29.83,9,4,14,0.00
2013-6-5,66.8,62.8,60.7,59.0,57.7,56.1,89,84,75,29.95,29.87,10,4,13,0.00
2013-6-6,65.2,61.8,60.5,59.6,58.2,56.9,92,88,81,29.91,29.83,7,4,11,0.00
2013-6-7,66.2,61.7,60.1,60.9,58.3,57.0,92,88,83,29.86,29.74,7,2,11,0.00
2013-6-8,69.3,63.8,61.2,61.7,59.5,58.5,91,86,74,29.85,29.74,8,3,11,0.00
2013-6-9,69.4,63.4,60.8,61.0,58.6,56.7,90,84,73,29.88,29.82,9,2,12,0.00
2013-6-10,70.9,65.3,61.8,60.8,57.3,54.7,89,76,62,29.91,29.83,9,4,15,0.00
2013-6-11,70.6,64.9,60.4,63.2,60.8,58.3,94,87,76,29.88,29.83,10,4,18,0.00
2013-6-12,66.7,63.1,61.5,61.7,60.1,58.2,95,90,82,29.98,29.87,8,3,10,0.00
2013-6-13,61.5,61.4,61.3,58.7,58.4,58.1,91,90,89,29.94,29.91,1,0,3,0.00
2013-6-16,68.7,65.3,60.2,59.8,59.0,58.2,93,80,72,29.98,29.91,9,5,16,0.00
2013-6-17,69.2,63.9,57.1,61.9,59.7,56.0,97,87,75,29.93,29.83,9,3,16,0.00
2013-6-18,70.6,65.9,59.7,63.1,60.5,56.9,95,83,69,29.85,29.79,9,3,10,0.00
2013-6-19,70.8,65.0,57.3,62.2,59.2,55.1,94,82,63,29.82,29.74,9,3,13,0.00
2013-6-20,73.5,66.0,58.0,63.0,60.1,55.9,97,82,57,29.81,29.74,9,3,11,0.00
2013-6-21,73.5,66.3,60.0,63.3,60.7,58.2,95,83,61,29.85,29.78,8,3,10,0.00
2013-6-22,75.1,66.3,61.6,62.1,60.4,58.6,94,82,60,29.86,29.77,8,3,12,0.00
2013-6-23,70.2,65.2,62.5,61.0,59.4,57.7,93,82,69,29.83,29.76,9,3,13,0.00
2013-6-24,71.9,66.2,63.0,62.3,60.1,58.4,94,81,66,29.88,29.77,8,3,12,0.00
2013-6-25,70.2,65.0,61.9,63.6,61.8,60.2,95,89,78,29.95,29.85,8,4,12,0.00
2013-6-26,72.3,66.8,62.0,65.1,63.4,61.1,97,89,77,29.93,29.86,8,3,16,0.00
2013-6-27,68.7,64.3,63.2,64.3,62.9,62.3,98,96,86,29.94,29.92,6,2,7,0.00
2013-6-28,74.6,67.4,62.9,66.1,64.1,62.4,99,90,74,29.94,29.83,8,2,13,0.00
2013-6-29,74.4,67.2,62.3,65.8,64.0,62.0,100,90,72,29.84,29.68,9,2,10,0.00
2013-6-30,84.6,72.7,64.2,68.8,65.6,62.4,95,80,53,29.76,29.65,10,2,16,0.00
2013-7-1,67.1,66.6,66.2,65.0,64.6,64.1,94,93,93,29.76,29.75,2,0,7,0.00
2013-7-2,73.0,69.3,65.0,67.2,65.3,63.8,97,87,80,29.95,29.85,9,4,11,0.00
2013-7-3,70.4,65.9,64.0,65.0,63.2,62.3,97,91,82,29.85,29.76,9,5,14,0.00
2013-7-4,71.1,66.5,63.3,64.3,62.7,60.9,95,88,78,29.79,29.71,8,3,14,0.00
2013-7-5,69.5,65.4,63.5,64.2,62.3,61.5,94,90,82,29.78,29.72,7,3,12,0.00
2013-7-6,72.4,67.3,64.7,66.0,63.5,62.0,92,88,78,29.78,29.70,8,2,12,0.00
2013-7-7,69.7,66.0,63.9,64.6,62.5,-99.9,95,89,81,29.84,29.73,9,-1,14,0.00
2013-7-8,71.7,65.8,59.7,65.3,62.2,58.6,98,89,76,29.88,29.80,10,3,17,0.00
2013-7-9,73.1,67.8,63.7,65.8,63.8,62.1,98,88,75,29.94,29.84,9,4,14,0.00
2013-7-10,74.1,68.1,64.3,67.9,64.8,61.7,94,89,80,29.92,29.85,4,1,8,0.00
2013-7-11,68.6,67.2,66.6,66.4,65.4,64.8,95,94,90,29.88,29.86,2,0,5,0.01
2013-7-12,75.9,69.2,65.2,67.9,65.6,64.0,97,89,75,29.88,29.84,9,2,13,0.00
2013-7-13,71.3,67.5,64.3,64.4,63.0,61.7,94,86,77,29.91,29.82,10,4,13,0.00
2013-7-14,73.1,67.8,63.6,66.2,63.9,61.8,96,88,77,29.88,29.77,8,2,13,0.00
2013-7-15,73.0,67.4,62.5,66.5,62.4,58.4,96,84,68,29.82,29.75,10,3,16,0.00
2013-7-16,71.9,66.4,59.4,63.6,61.2,57.8,95,84,74,29.93,29.80,10,4,16,0.00
2013-7-17,73.0,66.7,57.4,65.2,61.1,56.1,98,83,69,29.96,29.90,10,4,14,0.00
2013-7-18,71.0,66.1,61.8,63.2,61.6,59.6,94,86,75,29.93,29.81,10,4,13,0.00
2013-7-19,70.8,66.1,61.8,64.5,62.3,60.1,95,88,78,29.85,29.78,8,3,11,0.00
2013-7-20,71.4,66.3,64.2,64.9,62.7,61.2,93,88,80,29.83,29.74,7,2,15,0.00
2013-7-21,70.8,67.3,64.7,65.0,63.7,62.0,92,88,80,29.87,29.76,4,1,7,0.00
2013-7-22,72.3,67.3,64.8,66.1,64.0,62.1,97,90,80,29.94,29.85,9,3,13,0.01
2013-7-23,70.6,66.5,63.8,64.3,62.8,61.6,95,88,79,29.99,29.89,9,4,14,0.00
2013-7-24,68.3,64.1,61.6,63.2,61.5,59.9,97,92,83,29.93,29.85,9,4,14,0.00
2013-7-25,70.2,64.7,61.9,63.4,61.5,60.1,94,89,78,29.96,29.88,9,3,13,0.00
2013-7-26,70.9,66.0,62.9,64.3,62.3,60.3,95,88,77,30.03,29.93,9,4,14,0.00
2013-7-27,68.9,64.6,62.0,63.2,61.3,59.6,95,89,80,29.96,29.83,10,4,12,0.00
2013-7-28,69.1,64.1,61.9,63.2,60.9,59.3,98,90,78,29.88,29.83,8,2,13,0.00
2013-7-29,69.9,64.9,62.3,60.7,59.5,57.9,90,83,71,29.99,29.86,8,3,13,0.00
2013-7-30,69.3,64.7,61.6,61.4,59.5,58.5,92,84,72,30.08,29.99,9,3,15,0.00
2013-7-31,68.7,64.2,61.8,60.8,59.3,58.4,90,84,73,30.06,29.95,8,3,13,0.00
2013-8-1,69.0,64.3,61.2,60.9,59.6,58.2,92,85,74,29.98,29.86,8,3,12,0.00
2013-8-2,71.5,65.8,59.7,63.4,60.9,58.0,95,84,71,29.92,29.86,8,3,12,0.00
2013-8-3,71.5,66.1,62.6,63.4,61.1,59.7,91,84,72,29.94,29.88,9,3,14,0.00
2013-8-4,68.8,64.3,61.3,62.4,60.5,59.3,93,88,78,29.97,29.88,9,3,12,0.00
2013-8-5,70.6,63.8,59.9,62.1,59.9,58.2,95,87,73,29.96,29.88,9,3,14,0.00
2013-8-6,69.8,64.5,60.8,61.2,59.6,58.4,94,85,72,29.99,29.92,9,4,14,0.00
2013-8-7,68.9,64.3,61.4,61.6,59.9,58.7,92,86,75,30.03,29.94,9,3,14,0.00
2013-8-8,69.4,64.5,59.8,62.3,60.4,58.0,95,87,77,29.95,29.86,10,3,14,0.00
2013-8-9,69.2,64.4,60.2,61.4,59.7,57.8,92,85,74,29.91,29.86,9,4,14,0.00
2013-8-10,70.6,65.1,61.3,61.2,60.0,58.8,94,84,70,29.97,29.91,9,3,14,0.00
2013-8-11,70.0,65.0,62.0,62.4,60.7,59.3,94,86,74,29.94,29.84,8,3,14,0.00
2013-8-12,71.0,65.0,61.5,63.0,61.0,59.8,95,87,73,29.92,29.85,9,3,14,0.00
2013-8-13,72.6,65.2,61.2,63.5,61.5,59.2,97,88,72,29.92,29.82,8,3,13,0.00
2013-8-14,73.4,65.3,62.3,65.0,62.2,60.6,96,90,75,29.88,29.79,8,3,13,0.00
2013-8-15,70.7,65.9,63.4,64.3,62.8,61.7,96,90,79,29.90,29.83,8,3,11,0.00
2013-8-16,71.1,65.6,61.9,65.4,63.1,60.8,99,92,80,29.91,29.85,8,3,14,0.00
2013-8-17,68.7,64.1,61.1,63.4,61.6,60.8,99,92,81,29.91,29.77,9,3,14,0.00
2013-8-18,70.8,65.2,61.2,64.6,62.4,60.3,98,91,80,29.85,29.77,7,2,9,0.00
2013-8-19,72.5,65.9,62.8,64.7,62.5,61.0,95,89,76,29.90,29.81,8,3,12,0.00
2013-8-20,69.1,64.9,62.0,63.0,61.5,60.3,95,89,80,29.88,29.80,10,4,14,0.00
2013-8-21,69.7,66.0,62.7,63.6,61.9,60.7,97,87,77,29.86,29.79,11,5,16,0.00
2013-8-22,74.5,67.8,62.9,64.0,61.6,59.2,96,81,61,29.86,29.74,12,5,18,0.00
2013-8-23,73.2,66.8,58.7,64.5,61.8,57.1,95,85,69,29.80,29.69,10,3,14,0.00
2013-8-24,67.5,62.8,59.3,62.2,60.5,58.6,99,92,82,29.82,29.73,9,3,13,0.00
2013-8-25,68.3,62.5,58.5,62.7,60.4,58.2,100,93,82,29.86,29.80,8,2,13,0.00
2013-8-26,74.3,67.0,60.4,64.8,62.4,60.1,99,86,70,29.86,29.76,8,3,12,0.01
2013-8-27,73.1,67.5,64.3,65.5,63.2,60.7,94,86,76,29.79,29.71,9,4,13,0.00
2013-8-28,76.0,68.5,63.5,65.1,63.3,61.4,96,84,67,29.84,29.72,10,3,12,0.00
2013-8-29,81.1,71.2,64.0,66.6,63.4,60.4,96,77,58,29.87,29.82,9,3,13,0.00
2013-8-30,91.3,77.8,67.9,68.5,64.5,60.8,89,66,42,29.91,29.83,7,2,10,0.00
2013-8-31,81.7,75.7,71.7,67.5,63.5,59.6,78,66,51,29.91,29.82,7,2,11,0.00
2013-9-1,77.2,71.7,67.7,68.6,66.8,64.0,97,85,66,29.88,29.80,8,3,12,0.00
2013-9-2,75.9,69.6,66.3,69.6,67.3,65.8,99,93,79,29.87,29.75,8,3,15,0.00
2013-9-3,81.1,73.0,67.6,70.9,67.3,64.1,97,83,70,29.85,29.76,8,2,14,0.00
2013-9-4,79.0,73.3,67.1,69.7,65.4,62.4,93,77,61,29.85,29.78,10,3,16,0.00
2013-9-5,78.4,72.2,65.8,67.7,64.7,61.8,94,78,61,29.83,29.76,10,3,13,0.00
2013-9-6,81.0,72.4,65.2,69.1,65.0,62.3,93,79,60,29.81,29.73,8,2,13,0.00
2013-9-7,79.0,70.3,65.5,68.2,65.2,62.8,96,84,62,29.81,29.75,10,3,14,0.00
2013-9-8,69.8,65.7,62.0,64.9,62.6,60.6,96,90,80,29.80,29.71,9,3,18,0.00
2013-9-9,69.1,64.3,61.4,63.4,61.6,59.4,98,91,82,29.77,29.70,8,3,14,0.00
2013-9-10,70.5,65.4,61.5,61.4,60.2,59.4,93,84,72,29.89,29.76,8,3,13,0.00
2013-9-11,71.1,65.5,60.8,63.5,61.1,58.9,95,86,70,29.94,29.87,9,3,12,0.00
2013-9-12,63.4,62.2,60.7,61.3,60.5,59.3,96,94,93,29.88,29.85,1,0,2,0.00
2013-9-13,72.3,67.3,63.8,65.3,64.0,62.0,95,90,76,29.65,29.62,9,3,14,0.01
2013-9-14,71.9,66.9,60.6,66.8,63.5,59.7,98,89,77,29.66,29.59,7,2,11,0.01
2013-9-15,75.7,67.7,60.4,67.7,63.1,59.0,99,86,73,29.71,29.64,10,2,16,0.00
2013-9-16,74.5,67.1,61.0,66.0,62.4,58.8,97,85,71,29.76,29.68,12,3,19,0.00
2013-9-17,71.2,64.8,60.3,65.0,62.1,58.8,98,91,78,29.77,29.68,7,2,11,0.00
2013-9-18,72.7,66.7,60.4,62.9,61.2,59.3,97,83,68,29.76,29.69,8,2,11,0.00
2013-9-19,72.3,66.2,58.4,63.9,62.0,57.3,98,87,73,29.77,29.70,8,3,11,0.00
2013-9-20,69.0,65.8,64.1,63.5,62.5,61.4,93,89,81,29.83,29.76,6,2,9,0.00
2013-9-21,70.7,65.9,63.0,63.2,61.2,59.3,95,85,70,29.86,29.74,10,4,18,0.00
2013-9-22,72.0,64.9,56.6,61.4,58.6,49.6,98,81,49,29.79,29.73,8,2,11,0.00
2013-9-23,80.2,67.6,55.0,60.6,55.6,50.0,94,69,38,29.83,29.75,6,2,11,0.00
2013-9-24,77.7,67.4,57.5,63.9,58.2,51.8,95,75,41,29.87,29.77,8,2,13,0.00
2013-9-25,74.8,66.5,61.3,64.1,59.9,53.8,97,80,60,29.80,29.65,8,3,13,0.00
2013-9-26,70.2,64.7,59.1,59.3,55.4,41.2,88,72,42,29.82,29.66,13,4,20,0.00
2013-9-27,78.1,64.9,51.7,59.7,51.1,43.5,91,64,30,29.92,29.82,9,2,14,0.00
2013-9-28,86.2,66.7,52.8,62.1,49.3,29.2,85,58,13,29.97,29.91,8,2,12,0.00
2013-9-29,78.6,65.1,52.4,63.7,55.6,47.9,91,73,38,30.00,29.91,8,2,13,0.00
2013-9-30,73.2,64.9,54.7,64.8,59.2,53.3,96,82,60,29.93,29.80,7,2,11,0.00
2013-10-1,77.8,67.2,60.2,65.0,61.9,56.2,97,84,49,29.88,29.82,7,2,10,0.01
2013-10-2,72.1,66.2,62.6,63.0,60.4,58.5,92,82,67,29.91,29.83,8,2,13,0.00
2013-10-3,69.5,64.8,61.3,62.4,60.6,59.1,94,86,77,29.87,29.77,9,2,15,0.00
2013-10-4,78.4,68.1,61.1,64.2,60.5,51.1,92,78,55,29.97,29.82,7,1,12,0.00
2013-10-5,88.1,70.2,53.6,52.7,44.1,19.0,80,48,8,30.05,29.97,10,2,15,0.00
2013-10-6,82.8,64.5,52.8,59.0,47.6,24.4,77,59,13,30.02,29.88,6,1,11,0.00
2013-10-7,75.5,65.6,56.6,63.4,56.3,46.7,89,73,46,29.91,29.85,7,2,11,0.00
2013-10-8,69.3,64.5,61.5,58.7,56.9,55.4,84,77,66,29.86,29.76,9,4,16,0.01
2013-10-9,65.7,60.9,55.7,55.9,51.9,45.8,85,72,61,29.76,29.65,12,4,14,0.04
2013-10-10,67.4,58.7,50.1,54.7,51.2,48.3,95,77,54,29.95,29.74,8,2,12,0.01
2013-10-11,67.9,59.9,50.3,58.5,54.5,48.6,95,83,64,29.98,29.89,8,2,14,0.00
2013-10-12,68.6,61.4,52.6,61.6,57.8,51.6,98,88,76,29.91,29.84,8,2,12,0.01
2013-10-13,68.8,61.8,56.7,58.0,56.7,54.5,96,84,67,29.96,29.87,8,2,14,0.00
2013-10-14,70.5,62.0,51.8,61.8,56.9,50.7,97,84,66,29.96,29.84,8,2,15,0.00
2013-10-15,86.9,66.9,52.3,57.1,50.0,32.7,95,62,15,29.90,29.82,6,1,11,0.00
2013-10-16,84.3,68.0,52.7,53.6,43.8,27.1,83,50,13,30.00,29.90,7,1,11,0.00
2013-10-17,78.8,64.3,51.2,62.5,51.6,35.5,93,68,21,29.97,29.86,9,2,15,0.00
2013-10-18,76.2,62.9,52.0,63.5,57.4,48.6,97,84,42,29.95,29.87,9,2,13,0.00
2013-10-19,70.0,61.6,52.4,63.5,58.6,51.6,99,90,57,29.96,29.90,7,2,9,0.02
2013-10-20,67.2,60.1,53.5,60.9,57.5,52.7,99,92,79,29.93,29.84,8,2,13,0.01
2013-10-21,67.2,60.2,53.3,59.1,57.0,52.2,98,89,74,29.93,29.85,8,2,10,0.01
2013-10-22,66.8,59.9,52.9,59.8,56.8,51.9,99,90,78,29.94,29.85,8,2,12,0.00
2013-10-23,65.4,62.0,58.5,58.3,57.2,55.4,95,84,76,29.91,29.85,7,2,12,0.00
2013-10-24,66.6,62.8,57.9,58.3,57.0,55.1,92,82,73,29.99,29.89,8,2,11,0.00
2013-10-25,66.9,61.9,55.8,59.6,57.8,53.8,95,87,74,30.07,29.96,7,2,9,0.00
2013-10-26,66.6,60.7,55.9,61.3,59.0,54.5,99,94,82,30.03,29.90,7,1,11,0.00
2013-10-27,66.6,60.2,53.7,62.3,57.9,52.9,100,92,80,29.91,29.76,7,2,12,0.01
2013-10-28,64.7,60.4,55.5,57.3,53.4,50.7,93,78,64,29.87,29.76,9,5,14,0.07
2013-10-29,64.5,58.3,51.7,54.2,52.1,48.9,97,81,59,29.94,29.86,9,2,11,0.01
2013-10-30,66.6,58.3,48.7,56.8,52.5,47.3,96,82,59,30.00,29.93,7,2,11,0.00
2013-10-31,77.4,60.9,47.9,57.1,51.4,41.2,96,74,28,30.02,29.93,8,2,12,0.01
2013-11-1,81.6,63.7,49.0,57.0,49.9,37.0,91,65,21,30.03,29.87,5,1,8,0.00
2013-11-2,78.8,63.2,50.6,62.1,52.6,39.9,96,73,26,29.92,29.82,8,1,11,0.00
2013-11-3,68.3,62.6,58.6,58.7,56.3,54.4,95,80,63,29.85,29.76,7,2,9,0.00
2013-11-4,66.7,61.8,55.0,57.8,55.2,53.3,95,79,66,29.87,29.73,8,2,14,0.00
2013-11-5,72.9,59.9,48.1,56.5,50.0,37.9,98,74,29,30.08,29.87,9,2,14,0.00
2013-11-6,80.8,61.8,45.2,54.5,41.3,19.1,90,55,10,30.14,30.06,7,2,11,0.00
2013-11-7,84.3,66.9,55.2,52.1,45.7,23.7,77,54,11,30.03,29.93,5,1,8,0.00
2013-11-8,75.3,61.2,50.7,60.1,52.6,45.0,98,75,41,29.96,29.87,6,1,10,0.00
2013-11-9,71.2,61.0,54.6,58.8,56.7,50.5,98,87,51,30.01,29.93,6,1,8,0.00
2013-11-10,81.3,61.6,51.9,61.5,54.7,39.1,99,83,23,30.05,29.96,10,2,13,0.02
2013-11-11,58.9,51.1,47.1,53.7,49.4,46.0,98,94,70,30.03,29.98,1,0,3,0.00
2013-11-13,89.6,71.8,59.5,57.3,50.6,36.2,76,51,16,29.93,29.83,5,1,12,0.00
2013-11-14,91.2,66.7,53.3,59.0,48.4,31.0,89,58,12,29.86,29.69,5,1,10,0.00
2013-11-15,67.6,61.5,55.0,59.3,56.9,53.1,95,85,68,29.70,29.62,7,2,13,0.00
2013-11-16,66.5,59.6,53.1,56.4,52.1,46.7,95,78,50,29.88,29.69,7,1,9,0.00
2013-11-17,64.9,58.5,52.3,58.1,53.5,49.9,94,84,69,30.03,29.88,7,1,10,0.00
2013-11-18,65.7,58.0,49.4,57.7,53.9,48.6,99,87,73,30.10,29.99,7,2,11,0.00
2013-11-19,64.3,60.3,58.0,56.5,55.1,54.0,90,83,72,30.02,29.90,6,2,10,0.00
2013-11-20,66.5,60.6,56.0,59.1,56.5,53.9,98,87,71,29.92,29.82,6,1,10,0.10
2013-11-21,62.2,59.0,53.9,60.3,57.1,53.0,99,94,81,29.82,29.76,7,2,10,0.19
2013-11-22,65.4,56.6,51.8,54.1,49.4,41.9,98,79,48,29.89,29.77,8,1,9,0.02
2013-11-23,66.1,57.3,51.3,51.9,46.9,41.3,83,69,41,30.02,29.88,7,2,11,0.00
2013-11-24,67.1,56.8,46.7,51.8,46.4,42.7,92,70,42,30.13,30.02,5,1,8,0.00
2013-11-25,69.5,56.8,45.1,57.7,49.5,42.6,93,78,40,30.18,30.10,7,1,10,0.00
2013-11-26,75.9,58.2,46.8,56.4,49.6,38.7,94,76,27,30.13,29.97,8,1,14,0.00
2013-11-27,75.5,59.9,49.4,54.2,47.8,39.2,91,69,29,29.97,29.81,5,0,8,0.00
2013-11-28,67.9,59.0,49.3,56.8,51.2,43.1,91,76,49,29.99,29.82,7,1,10,0.00
2013-11-29,63.4,57.9,52.2,56.6,54.9,51.1,97,90,74,30.11,29.99,5,1,9,0.35
2013-11-30,70.9,59.3,49.4,56.7,52.7,47.2,99,81,44,30.13,30.02,6,1,10,0.01
2013-12-1,81.5,60.4,48.3,54.3,48.6,36.7,95,71,21,30.15,30.04,5,1,9,0.00
2013-12-2,70.9,57.3,47.3,57.0,46.6,36.9,97,71,32,30.05,29.85,5,0,6,0.00
2013-12-3,60.1,54.7,47.3,53.2,48.1,45.1,97,79,66,29.82,29.70,11,6,14,0.00
2013-12-4,61.5,53.8,46.3,46.1,32.7,21.8,70,46,28,29.90,29.71,11,4,15,0.00
2013-12-5,60.4,50.7,40.8,41.7,38.6,34.7,89,65,40,30.04,29.88,6,2,10,0.00
2013-12-6,59.5,49.5,39.4,44.8,41.0,36.7,91,73,54,30.11,30.03,6,1,11,0.00
2013-12-7,58.3,49.6,43.6,52.3,40.6,27.1,97,73,46,30.05,29.93,12,3,19,0.31
2013-12-8,57.5,46.9,36.9,39.8,34.6,26.3,87,63,41,30.14,30.04,5,1,7,0.00
2013-12-9,62.5,47.9,36.0,36.2,27.4,14.2,82,50,16,30.23,30.13,6,1,8,0.00
2013-12-10,67.2,50.6,36.8,42.1,24.8,10.4,72,40,11,30.21,30.03,6,2,11,0.00
2013-12-11,74.7,54.8,38.6,51.8,33.1,13.6,92,52,10,30.11,30.03,6,2,9,0.00
2013-12-12,65.9,54.3,44.6,53.5,44.3,27.8,95,71,42,30.15,30.06,6,1,8,0.00
2013-12-13,64.2,53.3,44.3,53.5,49.2,43.0,99,87,60,30.17,30.07,5,1,8,0.01
2013-12-14,70.2,55.1,41.9,50.6,43.9,34.4,98,72,27,30.22,30.11,5,1,8,0.01
2013-12-15,81.1,58.9,41.6,54.1,38.7,23.0,82,55,13,30.18,30.01,6,1,8,0.00
2013-12-16,85.4,63.2,49.7,54.5,40.1,28.4,68,46,13,30.06,29.98,7,1,11,0.00
2013-12-17,77.9,62.5,52.0,57.5,47.1,37.8,84,60,32,30.07,29.93,6,0,8,0.00
2013-12-18,67.6,59.7,55.7,58.4,54.4,50.8,93,83,60,29.93,29.80,8,2,11,0.00
2013-12-19,57.7,54.1,46.2,51.4,47.2,43.4,92,78,62,29.80,29.65,10,2,14,0.09
2013-12-20,63.4,51.5,41.1,52.1,46.0,40.0,97,83,53,29.88,29.70,3,1,7,0.00
2013-12-21,61.4,52.5,44.4,52.0,48.1,43.1,96,85,69,30.02,29.85,5,1,7,0.01
2013-12-22,68.1,52.8,42.4,54.1,48.6,41.3,98,87,51,30.20,30.02,7,1,10,0.00
2013-12-23,74.8,56.0,44.1,53.6,47.7,41.9,98,78,31,30.25,30.13,6,1,6,0.01
2013-12-24,79.7,58.9,45.5,54.8,45.6,37.3,92,66,23,30.13,30.02,5,1,8,0.00
2013-12-25,83.9,59.9,45.4,46.7,39.0,22.7,88,55,11,30.14,30.04,3,0,6,0.00
2013-12-26,81.2,59.1,44.3,38.9,31.4,11.8,69,42,8,30.10,30.00,4,0,6,0.00
2013-12-27,84.9,58.2,42.6,45.4,35.2,16.1,70,48,8,30.09,29.97,7,1,9,0.00
2013-12-28,69.1,57.9,48.9,55.4,46.5,35.5,97,68,37,29.97,29.86,7,1,10,0.00
2013-12-29,73.3,57.2,46.1,56.8,44.1,27.5,100,69,19,30.07,29.93,4,1,6,0.02
2013-12-30,72.7,54.8,41.4,54.0,39.5,25.5,97,62,22,30.19,30.07,5,1,7,0.00
2013-12-31,64.7,53.4,41.8,54.6,47.4,33.4,99,83,35,30.14,30.02,5,1,9,0.01
2014-1-1,62.7,53.6,46.0,55.7,51.0,45.0,100,92,71,30.08,29.98,5,1,7,0.01
2014-1-2,76.6,57.0,44.0,55.2,46.6,34.3,98,72,22,30.04,29.93,5,1,7,0.01